Tracking 19795 objects as of 20-Jul-2019
HD Live streaming from Space Station
objects crossing your sky now

COSMOS 1275 DEB

Track COSMOS 1275 DEB now!
10-day predictions


NORAD ID: 42183
Int'l Code: 1981-053SX
Perigee: 926.5 km
Apogee: 997.7 km
Inclination: 82.9 °
Period: 104.2 minutes
Semi major axis: 7333 km
RCS: Unknown
Launch date: June 4, 1981
Source: Commonwealth of Independent States (former USSR) (CIS)
Launch site: PLESETSK MISSILE AND SPACE COMPLEX (PKMTR)

Note: This is SATELLITE DEBRIS
aabbcc
Your satellite tracking list
Your tracking list is empty




NASA's NSSDC Master Catalog

Two Line Element Set (TLE):
1 42183U 81053SX  19198.03099831  .00000102  00000-0  79249-4 0  9994
2 42183  82.9331 312.6252 0048542  38.8034  83.8418 13.82528421816885
Source of the keplerian elements: AFSPC